Time,TemperatureF,DewpointF,PressureIn,WindDirection,WindDirectionDegrees,WindSpeedMPH,WindSpeedGustMPH,Humidity,HourlyPrecipIn,Conditions,Clouds,dailyrainin,SoftwareType,DateUTC
2013-04-18 00:08:00,63.5,61.0,29.88,SSE,166,0.0,1.0,90,0.00,,,0.01,weatherlink.com 1.10,2013-04-18 04:08:00,
2013-04-18 00:23:00,64.4,61.0,29.88,SE,139,0.0,1.0,87,0.00,,,0.01,weatherlink.com 1.10,2013-04-18 04:23:00,
2013-04-18 00:38:00,64.8,61.0,29.87,WSW,239,0.0,2.0,86,0.00,,,0.01,weatherlink.com 1.10,2013-04-18 04:38:00,
2013-04-18 00:53:00,64.7,60.0,29.87,WSW,245,0.0,0.0,85,0.00,,,0.01,weatherlink.com 1.10,2013-04-18 04:53:00,
2013-04-18 01:08:00,65.1,60.0,29.86,SW,215,0.0,2.0,84,0.00,,,0.01,weatherlink.com 1.10,2013-04-18 05:08:00,
2013-04-18 01:23:00,66.4,60.0,29.87,SW,222,0.0,2.0,81,0.00,,,0.01,weatherlink.com 1.10,2013-04-18 05:23:00,
2013-04-18 01:38:00,66.9,61.0,29.87,SSW,201,0.0,3.0,80,0.00,,,0.01,weatherlink.com 1.10,2013-04-18 05:38:00,
2013-04-18 01:53:00,67.1,60.0,29.86,WSW,256,1.0,7.0,79,0.00,,,0.01,weatherlink.com 1.10,2013-04-18 05:53:00,
2013-04-18 02:08:00,67.4,60.0,29.85,SSE,165,0.0,2.0,78,0.00,,,0.01,weatherlink.com 1.10,2013-04-18 06:08:00,
2013-04-18 02:23:00,67.7,60.0,29.85,South,184,0.0,3.0,77,0.00,,,0.01,weatherlink.com 1.10,2013-04-18 06:23:00,
2013-04-18 02:38:00,67.9,60.0,29.84,SE,143,4.0,9.0,77,0.00,,,0.01,weatherlink.com 1.10,2013-04-18 06:38:00,
2013-04-18 02:53:00,68.0,60.0,29.84,WSW,237,2.0,5.0,76,0.00,,,0.01,weatherlink.com 1.10,2013-04-18 06:53:00,
2013-04-18 03:08:00,67.6,60.0,29.83,SW,218,0.0,2.0,77,0.00,,,0.01,weatherlink.com 1.10,2013-04-18 07:08:00,
2013-04-18 03:23:00,66.9,60.0,29.82,SE,131,0.0,5.0,79,0.00,,,0.01,weatherlink.com 1.10,2013-04-18 07:23:00,
2013-04-18 03:38:00,66.4,60.0,29.82,SW,236,1.0,3.0,80,0.00,,,0.01,weatherlink.com 1.10,2013-04-18 07:38:00,
2013-04-18 03:53:00,66.0,60.0,29.82,SE,145,1.0,4.0,81,0.00,,,0.01,weatherlink.com 1.10,2013-04-18 07:53:00,
2013-04-18 04:08:00,65.1,60.0,29.82,South,177,0.0,1.0,82,0.00,,,0.01,weatherlink.com 1.10,2013-04-18 08:08:00,
2013-04-18 04:23:00,63.6,59.0,29.82,SE,129,0.0,1.0,86,0.00,,,0.01,weatherlink.com 1.10,2013-04-18 08:23:00,
2013-04-18 04:38:00,64.6,60.0,29.82,SSE,149,1.0,4.0,85,0.00,,,0.01,weatherlink.com 1.10,2013-04-18 08:38:00,
2013-04-18 05:19:00,67.4,61.0,29.81,SSE,165,2.0,5.0,81,0.00,,,0.01,weatherlink.com 1.10,2013-04-18 09:19:00,
2013-04-18 05:38:00,67.1,61.0,29.81,SSW,201,1.0,4.0,81,0.00,,,0.01,weatherlink.com 1.10,2013-04-18 09:38:00,
2013-04-18 05:53:00,67.0,61.0,29.81,SE,138,1.0,5.0,81,0.00,,,0.01,weatherlink.com 1.10,2013-04-18 09:53:00,
2013-04-18 06:08:00,66.8,61.0,29.80,SSE,152,1.0,3.0,82,0.00,,,0.01,weatherlink.com 1.10,2013-04-18 10:08:00,
2013-04-18 06:23:00,67.2,62.0,29.80,SW,232,1.0,7.0,82,0.00,,,0.01,weatherlink.com 1.10,2013-04-18 10:23:00,
2013-04-18 06:38:00,67.4,62.0,29.80,NNE,18,0.0,9.0,82,0.00,,,0.01,weatherlink.com 1.10,2013-04-18 10:38:00,
2013-04-18 06:53:00,67.2,62.0,29.81,WSW,242,0.0,7.0,82,0.00,,,0.01,weatherlink.com 1.10,2013-04-18 10:53:00,
2013-04-18 07:08:00,67.1,61.0,29.81,SW,221,3.0,7.0,82,0.00,,,0.01,weatherlink.com 1.10,2013-04-18 11:08:00,
2013-04-18 07:23:00,67.2,62.0,29.82,North,352,0.0,6.0,82,0.00,,,0.01,weatherlink.com 1.10,2013-04-18 11:23:00,
2013-04-18 07:38:00,67.4,62.0,29.82,SSW,193,1.0,5.0,82,0.00,,,0.01,weatherlink.com 1.10,2013-04-18 11:38:00,
2013-04-18 07:53:00,68.0,62.0,29.83,SW,217,0.0,5.0,81,0.00,,,0.01,weatherlink.com 1.10,2013-04-18 11:53:00,
2013-04-18 08:08:00,68.9,63.0,29.83,SW,215,0.0,10.0,80,0.00,,,0.01,weatherlink.com 1.10,2013-04-18 12:08:00,
2013-04-18 08:38:00,70.3,63.0,29.83,SSE,167,2.0,9.0,77,0.00,,,0.01,weatherlink.com 1.10,2013-04-18 12:38:00,
2013-04-18 08:53:00,70.5,63.0,29.83,WSW,252,4.0,14.0,77,0.00,,,0.01,weatherlink.com 1.10,2013-04-18 12:53:00,
2013-04-18 09:08:00,71.4,64.0,29.83,West,274,2.0,20.0,76,0.00,,,0.01,weatherlink.com 1.10,2013-04-18 13:08:00,
2013-04-18 09:23:00,72.4,64.0,29.84,SW,214,4.0,16.0,74,0.00,,,0.01,weatherlink.com 1.10,2013-04-18 13:23:00,
2013-04-18 09:38:00,73.1,64.0,29.83,South,189,1.0,17.0,72,0.00,,,0.01,weatherlink.com 1.10,2013-04-18 13:38:00,
2013-04-18 09:53:00,73.9,64.0,29.83,WSW,252,3.0,15.0,71,0.00,,,0.01,weatherlink.com 1.10,2013-04-18 13:53:00,
2013-04-18 10:08:00,74.6,64.0,29.82,SW,233,10.0,16.0,69,0.00,,,0.01,weatherlink.com 1.10,2013-04-18 14:08:00,
2013-04-18 10:23:00,75.6,64.0,29.82,SE,145,4.0,20.0,67,0.00,,,0.01,weatherlink.com 1.10,2013-04-18 14:23:00,
2013-04-18 10:38:00,76.1,63.0,29.81,West,281,4.0,21.0,65,0.00,,,0.01,weatherlink.com 1.10,2013-04-18 14:38:00,
2013-04-18 10:53:00,76.7,64.0,29.80,SW,215,2.0,16.0,64,0.00,,,0.01,weatherlink.com 1.10,2013-04-18 14:53:00,
2013-04-18 16:52:00,83.0,56.0,29.67,NW,319,4.0,17.0,40,0.00,,,0.00,weatherlink.com 1.10,2013-04-18 20:52:00,
2013-04-18 17:09:00,83.3,56.0,29.67,SW,222,8.0,19.0,39,0.00,,,0.00,weatherlink.com 1.10,2013-04-18 21:09:00,
2013-04-18 17:24:00,82.8,56.0,29.66,South,179,5.0,18.0,40,0.00,,,0.00,weatherlink.com 1.10,2013-04-18 21:24:00,
2013-04-18 17:40:00,83.0,56.0,29.66,WSW,240,8.0,16.0,40,0.00,,,0.00,weatherlink.com 1.10,2013-04-18 21:40:00,
2013-04-18 17:54:00,82.9,56.0,29.65,NNW,348,2.0,17.0,40,0.00,,,0.00,weatherlink.com 1.10,2013-04-18 21:54:00,
2013-04-18 18:09:00,82.2,56.0,29.64,WNW,284,6.0,18.0,41,0.00,,,0.00,weatherlink.com 1.10,2013-04-18 22:09:00,
2013-04-18 18:24:00,81.8,56.0,29.65,WSW,253,2.0,20.0,41,0.00,,,0.00,weatherlink.com 1.10,2013-04-18 22:24:00,
2013-04-18 18:54:00,81.1,55.0,29.64,SE,143,0.0,9.0,41,0.00,,,0.00,weatherlink.com 1.10,2013-04-18 22:54:00,
2013-04-18 19:09:00,80.9,55.0,29.64,SW,229,6.0,13.0,41,0.00,,,0.00,weatherlink.com 1.10,2013-04-18 23:09:00,
2013-04-18 19:24:00,80.5,55.0,29.63,ESE,116,2.0,9.0,41,0.00,,,0.00,weatherlink.com 1.10,2013-04-18 23:24:00,
2013-04-18 19:54:00,79.9,54.0,29.61,South,179,4.0,13.0,41,0.00,,,0.00,weatherlink.com 1.10,2013-04-18 23:54:00,
2013-04-18 20:09:00,79.4,54.0,29.62,SSE,156,6.0,15.0,42,0.00,,,0.00,weatherlink.com 1.10,2013-04-19 00:09:00,
2013-04-18 20:24:00,79.1,54.0,29.62,NNW,348,4.0,18.0,42,0.00,,,0.00,weatherlink.com 1.10,2013-04-19 00:24:00,
2013-04-18 20:39:00,78.9,54.0,29.62,ENE,78,1.0,16.0,42,0.00,,,0.00,weatherlink.com 1.10,2013-04-19 00:39:00,
2013-04-18 20:54:00,78.5,54.0,29.62,SSE,160,5.0,16.0,43,0.00,,,0.00,weatherlink.com 1.10,2013-04-19 00:54:00,
2013-04-18 21:09:00,78.1,54.0,29.63,SW,225,5.0,9.0,44,0.00,,,0.00,weatherlink.com 1.10,2013-04-19 01:09:00,
2013-04-18 21:24:00,77.9,55.0,29.62,ENE,60,4.0,14.0,45,0.00,,,0.00,weatherlink.com 1.10,2013-04-19 01:24:00,
2013-04-18 21:39:00,77.5,55.0,29.62,SSE,156,3.0,12.0,46,0.00,,,0.00,weatherlink.com 1.10,2013-04-19 01:39:00,
2013-04-18 21:54:00,77.2,55.0,29.61,NNE,29,1.0,10.0,47,0.00,,,0.00,weatherlink.com 1.10,2013-04-19 01:54:00,
2013-04-18 22:09:00,76.8,56.0,29.60,SSW,198,2.0,7.0,48,0.00,,,0.00,weatherlink.com 1.10,2013-04-19 02:09:00,
2013-04-18 22:24:00,76.6,56.0,29.59,West,270,3.0,16.0,49,0.00,,,0.00,weatherlink.com 1.10,2013-04-19 02:24:00,
2013-04-18 22:39:00,76.4,56.0,29.58,SW,217,2.0,14.0,49,0.00,,,0.00,weatherlink.com 1.10,2013-04-19 02:39:00,